ASIASAT 9

Last updated on Sun Apr 12 2026 00:02:54 GMT+0000 (Coordinated Universal Time)

1 42942U 17057A 26101.54487082 -.00000358 00000+0 00000+0 0 9994 2 42942 0.0110 222.5416 0002447 155.9078 139.5716 1.00271195 31191
UTC large
Height (km)
Speed (km/s)
/
Latitude / Longitude
Inclination (degrees)
Orbital Period (minutes)
Azimuth
Elevation
Range (km)
Doppler Factor

Next 0 passes for location: London (51.5072 / 0.1276)

Sorry there are no passes over London.
ASIASAT 9